This is the latest recevied weather packets stored in our database for station/object EA7OC-10. If no packets are shown the sender has not sent any weather packets the latest 10 day(s).
| Time | Temp. | Humidity | Pressure | Rain* | Wind** | Luminosity | Snow |
|---|---|---|---|---|---|---|---|
| 1777559689 | 32.78° C | 36% | 1016.3 hPa | - | - | - | - |
| 1777558789 | 33.33° C | 36% | 1016.4 hPa | - | - | - | - |
| 1777557889 | 33.89° C | 36% | 1016.4 hPa | - | - | - | - |
| 1777556988 | 33.33° C | 36% | 1016.5 hPa | - | - | - | - |
| 1777556087 | 33.89° C | 37% | 1016.5 hPa | - | - | - | - |
| 1777555187 | 33.89° C | 37% | 1016.5 hPa | - | - | - | - |
| 1777554286 | 33.33° C | 36% | 1016.6 hPa | - | - | - | - |
| 1777553386 | 33.33° C | 37% | 1016.6 hPa | - | - | - | - |
| 1777552481 | 33.33° C | 37% | 1016.6 hPa | - | - | - | - |
| 1777551581 | 32.22° C | 38% | 1016.6 hPa | - | - | - | - |
| 1777550681 | 32.22° C | 38% | 1016.8 hPa | - | - | - | - |
| 1777549781 | 31.11° C | 37% | 1016.8 hPa | - | - | - | - |
| 1777548881 | 30.56° C | 39% | 1017.1 hPa | - | - | - | - |
| 1777547981 | 28.33° C | 38% | 1017.1 hPa | - | - | - | - |
| 1777547081 | 28.89° C | 37% | 1017.3 hPa | - | - | - | - |
| 1777546181 | 29.44° C | 37% | 1017.5 hPa | - | - | - | - |
| 1777545281 | 30° C | 35% | 1017.8 hPa | - | - | - | - |
| 1777544380 | 31.67° C | 35% | 1017.8 hPa | - | - | - | - |
| 1777543480 | 32.22° C | 36% | 1017.9 hPa | - | - | - | - |
| 1777542578 | 32.78° C | 37% | 1017.9 hPa | - | - | - | - |
| 1777541678 | 32.78° C | 36% | 1018 hPa | - | - | - | - |
| 1777540778 | 32.78° C | 37% | 1018 hPa | - | - | - | - |
| 1777539878 | 32.78° C | 37% | 1017.8 hPa | - | - | - | - |
| 1777538978 | 32.22° C | 37% | 1017.8 hPa | - | - | - | - |
| 1777538077 | 31.67° C | 37% | 1017.9 hPa | - | - | - | - |
* Rain since midnight (hover to see other rain measurements)
** Current wind speed in m/s (hover to see current wind gust speed)